Regional Weather Roundup
Issued by NWS

Home | Current Version | Previous Version | Graphics & Text | Print | Product List | Glossary On
Versions: 1 2 3 4 5 6 7 8 9 10 11 12 13 14 15 16 17 18 19 20 21 22 23 24 25 26 27 28 29 30 31 32 33 34 35 36 37 38 39 40 41 42 43 44 45 46 47 48 49 50
000
ASUS43 KLOT 201858
RWRIL

ILLINOIS REGIONAL WEATHER ROUNDUP
NATIONAL WEATHER SERVICE CHICAGO/ROMEOVILLE IL
100 PM CST SAT DEC 20 2014

NOTE: "FAIR" INDICATES FEW OR NO CLOUDS BELOW 12,000 FEET WITH NO
SIGNIFICANT WEATHER AND/OR OBSTRUCTIONS TO VISIBILITY.

* THESE STATIONS ARE NOT UNDER NWS QUALITY CONTROL. THEY ALSO MAY NOT
  REPORT WEATHER SUCH AS PRECIPITATION OR FOG.

ILZ001-002-007-009-015-016-024-202000-
NORTHWEST ILLINOIS

CITY           SKY/WX    TMP DP  RH WIND       PRES   REMARKS
MOLINE         CLOUDY    34  26  72 SE7       30.22F WCI  28
$$

ILZ003-004-008-010-011-017-018-202000-
NORTH CENTRAL ILLINOIS

CITY           SKY/WX    TMP DP  RH WIND       PRES   REMARKS
ROCKFORD       NOT AVBL
$$

ILZ005-006-012>014-019>023-202000-
NORTHEAST ILLINOIS

CITY           SKY/WX    TMP DP  RH WIND       PRES   REMARKS
CHICAGO-OHARE  CLOUDY    32  23  69 W8        30.24F WCI  25
CHICAGO-MIDWAY FLURRIES  34  26  72 SW8       30.25F WCI  27
AURORA         CLOUDY    32  25  75 S6        30.25F HAZE    WCI  26
WAUKEGAN       NOT AVBL
DUPAGE AIRPORT CLOUDY    32  24  72 SW8       30.24F WCI  25
WHEELING       CLOUDY    32  23  69 SW8       30.26F WCI  25
NORTHERLY ISL    N/A     33  25  72 SW5         N/A  WCI  29
$$

LMZ740>746-202000-
SOUTHERN LAKE MICHIGAN

STATION/POSITION SKY/WX   TEMP    WIND        PRES    VSBY  WAVE
                          AIR SEA DIR/SP/G                  HT/PER
                          (F)     (DEG/KT/KT) (MB)    (MI)  (FT/S)
WAUKEGAN HARBOR            31     220/  4/  6   N/A
HARRISON CRIB              32     200/ 10/ 12   N/A
BURNHAM HARBOR             33     180/  6/ 11   N/A
CALUMET HARBOR             33     200/  7/ 10 1023.3F
$$

ILZ025>027-034>036-040-047-049-050-058-095>099-202000-
WEST-CENTRAL ILLINOIS

CITY           SKY/WX    TMP DP  RH WIND       PRES   REMARKS
$$

ILZ028>032-037-038-041>044-048-051>054-059>061-202000-
CENTRAL ILLINOIS

CITY           SKY/WX    TMP DP  RH WIND       PRES   REMARKS
PEORIA         NOT AVBL
SPRINGFIELD    CLOUDY    38  29  70 S7        30.24F WCI  33
TAYLORVILLE    NOT AVBL
$$

ILZ033-039-045-046-055>057-062-063-202000-
EAST-CENTRAL ILLINOIS

CITY           SKY/WX    TMP DP  RH WIND       PRES   REMARKS
CHAMPAIGN      CLOUDY    34  26  72 S9        30.25F WCI  27
MATTOON        CLOUDY    34  26  72 S6        30.24F WCI  29
$$

ILZ079-100>102-202000-
SOUTHWEST ILLINOIS

CITY           SKY/WX    TMP DP  RH WIND       PRES   REMARKS
CAHOKIA*       CLOUDY    41  33  73 CALM      30.24F
$$

ILZ064>066-069>071-074>076-080>082-084>086-088>090-092>094-202000-
SOUTH-CENTRAL ILLINOIS

CITY           SKY/WX    TMP DP  RH WIND       PRES   REMARKS
CARBONDALE     CLOUDY    41  29  62 SE6       30.26F
MARION         CLOUDY    41  30  65 E7        30.27F
$$

ILZ067-068-072-073-078-083-087-091-202000-
SOUTHEAST ILLINOIS

CITY           SKY/WX    TMP DP  RH WIND       PRES   REMARKS
LAWRENCEVILLE  CLOUDY    35  27  72 E5        30.28F WCI  31
$$

ABBREVIATIONS USED IN REMARKS
   TC - TEMPERATURE IN CELSIUS
  WCI - WIND CHILL INDEX
   HX - HEAT INDEX
  VSB - VISIBILITY
$$




USA.gov is the U.S. government's official web portal to all federal, state and local government web resources and services.